040  
ASUS42 KCAE 171110  
RWRCAE  
REGIONAL WEATHER ROUNDUP  
NATIONAL WEATHER SERVICE COLUMBIA SC  
700 AM EDT WED OCT 17 2018  
 
NOTE: "FAIR" INDICATES FEW OR NO CLOUDS BELOW 12,000 FEET WITH NO  
SIGNIFICANT WEATHER AND/OR S TO VISIBILITY
.  
 
NOT ALL STATIONS ARE QUALITY CONTROLLED BY THE NATIONAL  
WEATHER SERVICE. USE DATA WITH CAUTION...ESPECIALLY  
DEWPOINT OBSERVATIONS.  
 
SCZ001>056-GAZ040-063>065-077-171200-   
..UPSTATE SOUTH CAROLINA
 
 
 
CITY SKY/WX TMP DP RH WIND PRES REMARKS
 
ANDERSON CLOUDY 68 63 84 W3 30.13R  
LIBERTY CLOUDY 64 64 100 CALM 30.13S FOG  
SPARTANBURG CLOUDY 64 63 94 CALM 30.13R  
CLEMSON LGT RAIN 65 62 90 NW6 30.15R  
GREENVILLE LGT RAIN 67 66 97 NW5 30.15R  
GREENWOOD FAIR 66 65 96 W3 30.15R  
GREER CLOUDY 66 66 100 CALM 30.15R  
ROCK HILL CLOUDY 66 66 100 CALM 30.12R  
CHESTER CLOUDY 64 64 100 CALM 30.12S  
LAURENS CLOUDY 66 64 94 CALM 30.13R  
 
   
..CENTRAL SOUTH CAROLINA
 
 
 
CITY SKY/WX TMP DP RH WIND PRES REMARKS
 
COLUMBIA APT FAIR 71 69 93 N5 30.09R  
COLUMBIA OWENS FAIR 70 67 90 N3 30.10R  
MCENTIRE ANGB MOCLDY 68 68 100 N3 30.09R  
ORANGEBURG FOG 73 71 93 SW3 30.09R VSB 1/2  
SUMTER SHAW FAIR 70 68 93 CALM 30.08R  
NEWBERRY FAIR 68 68 100 CALM 30.15S  
AIKEN FAIR 64 64 100 NW5 30.14R  
BARNWELL FOG 73 72 94 CALM 30.10S VSB 1/4  
MANNING FAIR 68 68 100 MISG 30.09R FOG  
CAMDEN CLOUDY 68 68 100 CALM 30.11R FOG  
LANCASTER N/A 66 66 100 CALM 30.11S  
WINNSBORO CLOUDY 66 64 94 NW5 30.11S  
 
   
..EASTERN AND COASTAL SOUTH CAROLINA
 
 
 
CITY SKY/WX TMP DP RH WIND PRES REMARKS
 
MYRTLE BEACH MOCLDY 74 72 93 W3 30.10R  
N MYRTLE BCH CLOUDY 74 73 97 SW7 30.07S  
CONWAY FAIR 70 70 100 CALM 30.09R FOG  
MARION PTSUNNY 70 70 100 SW3 30.08R  
HARTSVILLE FAIR 66 66 100 CALM 30.09S  
FLORENCE MOCLDY 71 70 96 CALM 30.08S  
DARLINGTON MOCLDY 68 67 96 NW7 30.10R  
CHARLESTON APT MOCLDY 76 75 97 SW5 30.09S  
WALTERBORO CLOUDY 73 73 100 CALM 30.10S  
BEAUFORT FAIR 77 76 96 W6 30.10  
 
   
..EASTERN GEORGIA
 
 
 
CITY SKY/WX TMP DP RH WIND PRES REMARKS
 
AUGUSTA BUSH F FAIR 68 68 100 CALM 30.09S  
AUGUSTA DANIEL FAIR 71 66 84 NW5 30.12R  
THOMSON MOCLDY 68 66 94 N6 30.18R  
CLAXTON FAIR 74 74 98 CALM 30.10S  
SYLVANIA CLOUDY 75 75 100 CALM 30.11S FOG  
STATESBORO CLOUDY 74 73 96 CALM 30.10S  
SAVANNAH FAIR 77 75 93 SW7 30.10S  
 
   
..SOUTHERN NORTH CAROLINA
 
 
 
CITY SKY/WX TMP DP RH WIND PRES REMARKS
 
CHARLOTTE CLOUDY 67 67 100 CALM 30.12R  
MONROE CLOUDY 67 65 93 W3 30.10S  
WADESBORO CLOUDY 67 66 94 CALM 30.10S FOG  
ROCKINGHAM FAIR 67 67 100 CALM 30.10S  
ASHEVILLE CLOUDY 59 58 96 N13 30.20R  
 

 
 
 
CLICK HERE TO GO TO PREVIOUS BULLETINS.

The Nexlab SC Page
The Nexlab GA Page Main Text Page